| time (UTC) | temp C | wind direction | speed KPH | gust KPH | rain 1hr cm | rain 24hr cm | rain mn cm | humidity % | barometer mb |
| 20260906151205 | 23 | 151 | 14.5 | 17.7 | 0.00 | 0.00 | 0.00 | 82 | 1021.6 |
| 20260906150701 | 22 | 158 | 8.0 | 11.3 | 0.00 | 0.00 | 0.00 | 82 | 1021.6 |
| 20260906150156 | 22 | 161 | 11.3 | 19.3 | 0.00 | 0.00 | 0.00 | 84 | 1021.7 |
| 20260906145654 | -17 | 156 | 14.5 | 17.7 | 0.00 | 0.00 | 0.00 | 84 | 1021.6 |
| 20260906145149 | 22 | 147 | 6.4 | 14.5 | 0.00 | 0.00 | 0.00 | 84 | 1021.5 |
| 20260906144648 | 22 | 155 | 11.3 | 17.7 | 0.00 | 0.00 | 0.00 | 84 | 1021.6 |
| 20260906144143 | 21 | 155 | 8.0 | 19.3 | 0.00 | 0.00 | 0.00 | 84 | 1021.6 |
| 20260906143643 | 22 | 158 | 11.3 | 14.5 | 0.00 | 0.00 | 0.00 | 84 | 1021.6 |
| 20260906143141 | 22 | 155 | 9.7 | 12.9 | 0.00 | 0.00 | 0.00 | 85 | 1021.6 |
| 20260906142639 | 21 | 157 | 6.4 | 11.3 | 0.00 | 0.00 | 0.00 | 86 | 1021.6 |
| 20260906142135 | 21 | 168 | 4.8 | 11.3 | 0.00 | 0.00 | 0.00 | 87 | 1021.5 |
| 20260906141633 | 21 | 158 | 16.1 | 16.1 | 0.00 | 0.00 | 0.00 | 88 | 1021.4 |
| 20260906141129 | -17 | 160 | 11.3 | 12.9 | 0.00 | 0.00 | 0.00 | 88 | 1021.3 |
| 20260906140628 | -17 | 221 | 9.7 | 11.3 | 0.00 | 0.00 | 0.00 | 91 | 1021.5 |
| 20260906140123 | 21 | 169 | 6.4 | 8.0 | 0.00 | 0.00 | 0.00 | 94 | 1021.5 |
| 20260906135620 | 20 | 158 | 12.9 | 14.5 | 0.00 | 0.00 | 0.00 | 94 | 1021.9 |
| 20260906135116 | 20 | 219 | 0.0 | 9.7 | 0.00 | 0.00 | 0.00 | 95 | 1021.5 |
| 20260906134612 | -17 | 200 | 3.2 | 12.9 | 0.00 | 0.00 | 0.00 | 97 | 1021.6 |
| 20260906134107 | -17 | 187 | 6.4 | 16.1 | 0.00 | 0.00 | 0.00 | 97 | 1021.5 |
| 20260906133603 | -17 | 160 | 9.7 | 11.3 | 0.00 | 0.00 | 0.00 | 97 | 1021.5 |
| 20260906133057 | 20 | 165 | 6.4 | 20.9 | 0.00 | 0.00 | 0.00 | 96 | 1021.5 |
| 20260906132552 | 20 | 158 | 14.5 | 16.1 | 0.00 | 0.00 | 0.00 | 96 | 1021.2 |
| 20260906132048 | -17 | 180 | 4.8 | 9.7 | 0.00 | 0.00 | 0.00 | 95 | 1021.3 |
| 20260906131543 | 20 | 167 | 3.2 | 8.0 | 0.00 | 0.00 | 0.00 | 95 | 1021.3 |
| 20260906131038 | -17 | 159 | 8.0 | 11.3 | 0.00 | 0.00 | 0.00 | 97 | 1020.9 |
| 20260906130538 | -17 | 116 | 4.8 | 9.7 | 0.00 | 0.00 | 0.00 | 98 | 1020.7 |
| 20260906130033 | -17 | 275 | 1.6 | 8.0 | 0.00 | 0.00 | 0.00 | 99 | 1020.9 |
| 20260906125531 | -17 | 125 | 4.8 | 4.8 | 0.00 | 0.00 | 0.00 | 99 | 1021.0 |
| 20260906125031 | -17 | 174 | 3.2 | 3.2 | 0.00 | 0.00 | 0.00 | 99 | 1020.8 |
| 20260906124526 | -17 | 151 | 4.8 | 6.4 | 0.00 | 0.00 | 0.00 | 99 | 1021.0 |
| 20260906124021 | -17 | 131 | 4.8 | 8.0 | 0.00 | 0.00 | 0.00 | 99 | 1021.1 |
| 20260906123520 | 18 | 132 | 0.0 | 4.8 | 0.00 | 0.00 | 0.00 | 99 | 1020.9 |
| 20260906123015 | -17 | 129 | 4.8 | 6.4 | 0.00 | 0.00 | 0.00 | 99 | 1020.7 |
| 20260906122509 | -17 | 133 | 3.2 | 4.8 | 0.00 | 0.00 | 0.00 | 99 | 1020.7 |
| 20260906122006 | -17 | 171 | 0.0 | 4.8 | 0.00 | 0.00 | 0.00 | 99 | 1020.6 |
| 20260906121502 | -17 | 172 | 3.2 | 6.4 | 0.00 | 0.00 | 0.00 | 99 | 1020.7 |
| 20260906120958 | -17 | 166 | 4.8 | 8.0 | 0.00 | 0.00 | 0.00 | 99 | 1020.6 |
| 20260906120453 | -17 | 188 | 4.8 | 6.4 | 0.00 | 0.00 | 0.00 | 99 | 1020.5 |
| 20260906115949 | -17 | 110 | 3.2 | 6.4 | 0.00 | 0.00 | 0.00 | 99 | 1020.6 |
| 20260906115444 | -17 | 135 | 6.4 | 8.0 | 0.00 | 0.00 | 0.00 | 99 | 1020.6 |
| 20260906114944 | -17 | 110 | 3.2 | 6.4 | 0.00 | 0.00 | 0.00 | 99 | 1020.6 |
| 20260906114438 | -17 | 139 | 4.8 | 4.8 | 0.00 | 0.00 | 0.00 | 99 | 1020.6 |
| 20260906113935 | -17 | 133 | 3.2 | 4.8 | 0.00 | 0.00 | 0.00 | 99 | 1020.5 |
| 20260906113433 | -17 | 146 | 0.0 | 4.8 | 0.00 | 0.00 | 0.00 | 99 | 1020.6 |
| 20260906112929 | -17 | 89 | 6.4 | 8.0 | 0.00 | 0.00 | 0.00 | 99 | 1020.6 |
| 20260906112424 | -17 | 135 | 3.2 | 11.3 | 0.00 | 0.00 | 0.00 | 99 | 1020.7 |
| 20260906111920 | -17 | 89 | 4.8 | 6.4 | 0.00 | 0.00 | 0.00 | 99 | 1020.4 |
| 20260906111419 | -17 | 73 | 3.2 | 6.4 | 0.00 | 0.00 | 0.00 | 99 | 1020.4 |
| 20260906110914 | -17 | 25 | 3.2 | 6.4 | 0.00 | 0.00 | 0.00 | 99 | 1020.5 |
| 20260906110409 | -17 | 129 | 4.8 | 4.8 | 0.00 | 0.00 | 0.00 | 99 | 1020.5 |
| 20260906105909 | -17 | 106 | 3.2 | 6.4 | 0.00 | 0.00 | 0.00 | 99 | 1020.3 |
| 20260906105404 | 19 | 49 | 6.4 | 6.4 | 0.00 | 0.00 | 0.00 | 99 | 1020.6 |
| 20260906104900 | -17 | 95 | 3.2 | 4.8 | 0.00 | 0.00 | 0.00 | 99 | 1020.6 |
| 20260906104358 | -17 | 110 | 1.6 | 4.8 | 0.00 | 0.00 | 0.00 | 99 | 1020.6 |
| 20260906103857 | 19 | 126 | 4.8 | 6.4 | 0.00 | 0.00 | 0.00 | 99 | 1020.5 |
| 20260906103356 | 19 | 139 | 4.8 | 6.4 | 0.00 | 0.00 | 0.00 | 99 | 1020.2 |
| 20260906102852 | 19 | 110 | 3.2 | 4.8 | 0.00 | 0.00 | 0.00 | 99 | 1020.1 |
| 20260906102351 | -17 | 136 | 4.8 | 8.0 | 0.00 | 0.00 | 0.00 | 99 | 1020.0 |
| 20260906101846 | 18 | 172 | 3.2 | 9.7 | 0.00 | 0.00 | 0.00 | 99 | 1020.1 |
| 20260906101341 | 18 | 143 | 4.8 | 6.4 | 0.00 | 0.00 | 0.00 | 99 | 1019.9 |
| 20260906100837 | -17 | 142 | 4.8 | 8.0 | 0.00 | 0.00 | 0.00 | 98 | 1020.1 |
| 20260906100336 | 18 | 116 | 4.8 | 4.8 | 0.00 | 0.00 | 0.00 | 98 | 1019.9 |
| 20260906095831 | -17 | 160 | 3.2 | 4.8 | 0.00 | 0.00 | 0.00 | 98 | 1019.8 |
| 20260906095327 | -17 | 148 | 3.2 | 3.2 | 0.00 | 0.00 | 0.00 | 98 | 1019.8 |
| 20260906094826 | 19 | 140 | 0.0 | 3.2 | 0.00 | 0.00 | 0.00 | 98 | 1019.6 |
| 20260906094321 | 19 | 177 | 0.0 | 4.8 | 0.00 | 0.00 | 0.00 | 98 | 1019.8 |
| 20260906093817 | 19 | 151 | 3.2 | 3.2 | 0.00 | 0.00 | 0.00 | 98 | 1019.9 |
| 20260906093312 | 19 | 171 | 3.2 | 3.2 | 0.00 | 0.00 | 0.00 | 98 | 1019.7 |
| 20260906092802 | -17 | 185 | 1.6 | 4.8 | 0.00 | 0.00 | 0.00 | 97 | 1019.9 |
| 20260906092305 | 19 | 99 | 0.0 | 3.2 | 0.00 | 0.00 | 0.00 | 97 | 1019.8 |
| 20260906091758 | -17 | 140 | 0.0 | 3.2 | 0.00 | 0.00 | 0.00 | 97 | 1019.7 |
| 20260906091254 | -17 | 177 | 0.0 | 1.6 | 0.00 | 0.00 | 0.00 | 97 | 1019.7 |
| 20260906090750 | -17 | 146 | 0.0 | 3.2 | 0.00 | 0.00 | 0.00 | 97 | 1019.6 |
| 20260906090249 | -17 | 86 | 1.6 | 4.8 | 0.00 | 0.00 | 0.00 | 97 | 1019.6 |
| 20260906085748 | -17 | 132 | 8.0 | 8.0 | 0.00 | 0.00 | 0.00 | 97 | 1019.8 |
| 20260906085247 | 19 | 153 | 4.8 | 6.4 | 0.00 | 0.00 | 0.00 | 97 | 1019.5 |
| 20260906084743 | -17 | 183 | 4.8 | 8.0 | 0.00 | 0.00 | 0.00 | 97 | 1019.3 |
| 20260906084242 | 20 | 167 | 6.4 | 14.5 | 0.00 | 0.00 | 0.00 | 97 | 1019.3 |
| 20260906083737 | -17 | 146 | 6.4 | 11.3 | 0.00 | 0.00 | 0.00 | 97 | 1019.3 |
| 20260906083233 | -17 | 136 | 6.4 | 6.4 | 0.00 | 0.00 | 0.00 | 97 | 1019.3 |
| 20260906082728 | -17 | 189 | 3.2 | 6.4 | 0.00 | 0.00 | 0.00 | 97 | 1019.4 |
| 20260906082223 | -17 | 146 | 4.8 | 6.4 | 0.00 | 0.00 | 0.00 | 97 | 1019.6 |
| 20260906081719 | -17 | 168 | 3.2 | 4.8 | 0.00 | 0.00 | 0.00 | 97 | 1019.7 |
| 20260906081213 | 20 | 166 | 6.4 | 8.0 | 0.00 | 0.00 | 0.00 | 97 | 1019.7 |
| 20260906080710 | -17 | 166 | 4.8 | 8.0 | 0.00 | 0.00 | 0.00 | 97 | 1019.5 |
| 20260906080205 | -17 | 168 | 3.2 | 6.4 | 0.00 | 0.00 | 0.00 | 97 | 1019.5 |
| 20260906075700 | 20 | 136 | 4.8 | 6.4 | 0.00 | 0.00 | 0.00 | 97 | 1019.7 |
| 20260906075154 | 20 | 139 | 4.8 | 6.4 | 0.00 | 0.00 | 0.00 | 97 | 1019.8 |
| 20260906074650 | -17 | 137 | 4.8 | 8.0 | 0.00 | 0.00 | 0.00 | 97 | 1019.6 |
| 20260906074149 | -17 | 139 | 6.4 | 9.7 | 0.00 | 0.00 | 0.00 | 96 | 1019.9 |
| 20260906073644 | -17 | 163 | 8.0 | 11.3 | 0.00 | 0.00 | 0.00 | 96 | 1019.8 |
| 20260906073139 | -17 | 114 | 8.0 | 9.7 | 0.00 | 0.00 | 0.00 | 96 | 1019.7 |
| 20260906072634 | 20 | 146 | 6.4 | 8.0 | 0.00 | 0.00 | 0.00 | 96 | 1019.9 |
| 20260906072130 | 20 | 141 | 4.8 | 6.4 | 0.00 | 0.00 | 0.00 | 96 | 1019.8 |
| 20260906071626 | 20 | 151 | 4.8 | 6.4 | 0.00 | 0.00 | 0.00 | 95 | 1019.7 |
| 20260906071121 | 20 | 155 | 6.4 | 9.7 | 0.00 | 0.00 | 0.00 | 95 | 1019.7 |
| 20260906070617 | 20 | 166 | 4.8 | 6.4 | 0.00 | 0.00 | 0.00 | 95 | 1019.9 |
| 20260906070113 | 20 | 149 | 4.8 | 4.8 | 0.00 | 0.00 | 0.00 | 94 | 1020.1 |
| 20260906065612 | 20 | 185 | 3.2 | 4.8 | 0.00 | 0.00 | 0.00 | 94 | 1020.0 |
| 20260906065108 | 20 | 129 | 4.8 | 6.4 | 0.00 | 0.00 | 0.00 | 94 | 1020.0 |
| 20260906064603 | 20 | 115 | 0.0 | 4.8 | 0.00 | 0.00 | 0.00 | 94 | 1020.0 |
| 20260906064058 | 20 | 124 | 4.8 | 4.8 | 0.00 | 0.00 | 0.00 | 95 | 1020.2 |
| 20260906063553 | 20 | 83 | 3.2 | 3.2 | 0.00 | 0.00 | 0.00 | 95 | 1020.1 |
| 20260906063049 | 20 | 94 | 0.0 | 3.2 | 0.00 | 0.00 | 0.00 | 95 | 1020.1 |
| 20260906062545 | 20 | 89 | 1.6 | 4.8 | 0.00 | 0.00 | 0.00 | 95 | 1020.0 |
| 20260906062038 | -17 | 136 | 4.8 | 6.4 | 0.00 | 0.00 | 0.00 | 95 | 1020.0 |
| 20260906061535 | 20 | 115 | 3.2 | 6.4 | 0.00 | 0.00 | 0.00 | 94 | 1020.0 |
| 20260906061034 | -17 | 137 | 1.6 | 4.8 | 0.00 | 0.00 | 0.00 | 94 | 1020.1 |
| 20260906060531 | -17 | 143 | 3.2 | 4.8 | 0.00 | 0.00 | 0.00 | 93 | 1020.0 |
| 20260906060028 | -17 | 147 | 0.0 | 4.8 | 0.00 | 0.00 | 0.00 | 93 | 1020.2 |
| 20260906055523 | 21 | 168 | 3.2 | 4.8 | 0.00 | 0.00 | 0.00 | 93 | 1020.3 |
| 20260906055018 | -17 | 144 | 3.2 | 3.2 | 0.00 | 0.00 | 0.00 | 93 | 1020.1 |
| 20260906054518 | -17 | 160 | 3.2 | 4.8 | 0.00 | 0.00 | 0.00 | 93 | 1020.2 |
| 20260906054014 | 21 | 125 | 4.8 | 4.8 | 0.00 | 0.00 | 0.00 | 92 | 1020.2 |
| 20260906053510 | 21 | 127 | 4.8 | 4.8 | 0.00 | 0.00 | 0.00 | 92 | 1020.3 |
| 20260906053005 | 21 | 155 | 4.8 | 4.8 | 0.00 | 0.00 | 0.00 | 92 | 1020.2 |
| 20260906052501 | 21 | 179 | 3.2 | 4.8 | 0.00 | 0.00 | 0.00 | 92 | 1020.0 |
| 20260906051958 | 21 | 160 | 4.8 | 4.8 | 0.00 | 0.00 | 0.00 | 92 | 1020.0 |
| 20260906051453 | 21 | 131 | 1.6 | 4.8 | 0.00 | 0.00 | 0.00 | 92 | 1020.1 |
| 20260906050949 | 21 | 151 | 4.8 | 4.8 | 0.00 | 0.00 | 0.00 | 92 | 1020.1 |
| 20260906050448 | -17 | 159 | 3.2 | 4.8 | 0.00 | 0.00 | 0.00 | 91 | 1020.1 |
| 20260906045947 | -17 | 158 | 8.0 | 16.1 | 0.00 | 0.00 | 0.00 | 91 | 1020.1 |
| 20260906045446 | -17 | 160 | 8.0 | 8.0 | 0.00 | 0.00 | 0.00 | 91 | 1019.9 |
| 20260906044943 | 21 | 200 | 0.0 | 8.0 | 0.00 | 0.00 | 0.00 | 91 | 1020.0 |
| 20260906044438 | 21 | 166 | 4.8 | 6.4 | 0.00 | 0.00 | 0.00 | 91 | 1019.8 |
| 20260906043933 | 21 | 174 | 1.6 | 3.2 | 0.00 | 0.00 | 0.00 | 91 | 1019.7 |
| 20260906043429 | 21 | 186 | 1.6 | 3.2 | 0.00 | 0.00 | 0.00 | 91 | 1019.8 |
| 20260906042925 | 21 | 177 | 1.6 | 4.8 | 0.00 | 0.00 | 0.00 | 91 | 1019.6 |
| 20260906042424 | 21 | 166 | 3.2 | 4.8 | 0.00 | 0.00 | 0.00 | 92 | 1019.5 |
| 20260906041919 | 21 | 163 | 6.4 | 8.0 | 0.00 | 0.00 | 0.00 | 92 | 1019.9 |
| 20260906041415 | 21 | 170 | 4.8 | 6.4 | 0.00 | 0.00 | 0.00 | 91 | 1019.5 |
| 20260906040914 | 21 | 157 | 6.4 | 6.4 | 0.00 | 0.00 | 0.00 | 91 | 1019.7 |
| 20260906040410 | 21 | 167 | 3.2 | 8.0 | 0.00 | 0.00 | 0.00 | 91 | 1019.8 |
| 20260906035905 | 21 | 167 | 6.4 | 8.0 | 0.00 | 0.00 | 0.00 | 92 | 1019.7 |
| 20260906035401 | 21 | 163 | 4.8 | 8.0 | 0.00 | 0.00 | 0.00 | 92 | 1019.4 |
| 20260906034855 | 21 | 159 | 6.4 | 9.7 | 0.00 | 0.00 | 0.00 | 92 | 1019.2 |
| 20260906034350 | 21 | 186 | 3.2 | 9.7 | 0.00 | 0.00 | 0.00 | 91 | 1019.3 |
| 20260906033846 | 21 | 162 | 4.8 | 8.0 | 0.00 | 0.00 | 0.00 | 92 | 1019.5 |
| 20260906033345 | 21 | 161 | 6.4 | 6.4 | 0.00 | 0.00 | 0.00 | 91 | 1019.3 |
| 20260906032842 | 21 | 177 | 3.2 | 4.8 | 0.00 | 0.00 | 0.00 | 91 | 1019.6 |
| 20260906032337 | 22 | 163 | 3.2 | 3.2 | 0.00 | 0.00 | 0.00 | 91 | 1019.5 |
| 20260906031832 | 22 | 185 | 0.0 | 3.2 | 0.00 | 0.00 | 0.00 | 90 | 1019.6 |
| 20260906031328 | 22 | 229 | 0.0 | 1.6 | 0.00 | 0.00 | 0.00 | 90 | 1019.4 |
| 20260906030827 | 22 | 195 | 1.6 | 3.2 | 0.00 | 0.00 | 0.00 | 90 | 1019.4 |
| 20260906030323 | 22 | 200 | 0.0 | 1.6 | 0.00 | 0.00 | 0.00 | 89 | 1019.2 |
| 20260906025817 | 22 | 186 | 1.6 | 1.6 | 0.00 | 0.00 | 0.00 | 89 | 1019.6 |
| 20260906025311 | 22 | 160 | 3.2 | 3.2 | 0.00 | 0.00 | 0.00 | 89 | 1019.2 |
| 20260906024810 | 22 | 119 | 0.0 | 0.0 | 0.00 | 0.00 | 0.00 | 89 | 1019.1 |
| 20260906024309 | 22 | 134 | 0.0 | 1.6 | 0.00 | 0.00 | 0.00 | 89 | 1019.1 |
| 20260906023805 | 22 | 148 | 3.2 | 4.8 | 0.00 | 0.00 | 0.00 | 89 | 1018.9 |
| 20260906023300 | 22 | 182 | 1.6 | 4.8 | 0.00 | 0.00 | 0.00 | 89 | 1018.8 |
| 20260906022756 | 22 | 146 | 0.0 | 3.2 | 0.00 | 0.00 | 0.00 | 89 | 1018.7 |
| 20260906022251 | 22 | 141 | 3.2 | 3.2 | 0.00 | 0.00 | 0.00 | 88 | 1018.6 |
| 20260906021747 | 22 | 146 | 1.6 | 4.8 | 0.00 | 0.00 | 0.00 | 88 | 1018.4 |
| 20260906021246 | 22 | 187 | 4.8 | 4.8 | 0.00 | 0.00 | 0.00 | 87 | 1018.4 |
| 20260906020741 | 23 | 179 | 3.2 | 3.2 | 0.00 | 0.00 | 0.00 | 87 | 1018.4 |
| 20260906020241 | 23 | 160 | 3.2 | 4.8 | 0.00 | 0.00 | 0.00 | 86 | 1018.3 |
| 20260906015735 | 23 | 176 | 3.2 | 6.4 | 0.00 | 0.00 | 0.00 | 86 | 1018.3 |
| 20260906015234 | 23 | 200 | 1.6 | 3.2 | 0.00 | 0.00 | 0.00 | 86 | 1018.1 |
| 20260906014729 | 23 | 215 | 3.2 | 4.8 | 0.00 | 0.00 | 0.00 | 85 | 1017.7 |
| 20260906014224 | 23 | 193 | 1.6 | 4.8 | 0.00 | 0.00 | 0.00 | 84 | 1017.6 |
| 20260906013721 | 23 | 190 | 3.2 | 4.8 | 0.00 | 0.00 | 0.00 | 84 | 1017.5 |
| 20260906013220 | 23 | 172 | 4.8 | 8.0 | 0.00 | 0.00 | 0.00 | 84 | 1017.3 |
| 20260906012715 | 24 | 177 | 4.8 | 8.0 | 0.00 | 0.00 | 0.00 | 83 | 1017.4 |
| 20260906012210 | 24 | 145 | 3.2 | 8.0 | 0.00 | 0.00 | 0.00 | 83 | 1017.4 |
| 20260906011705 | 24 | 104 | 4.8 | 14.5 | 0.00 | 0.00 | 0.00 | 82 | 1017.4 |
| 20260906011159 | 24 | 154 | 6.4 | 11.3 | 0.00 | 0.00 | 0.00 | 82 | 1017.3 |
| 20260906010655 | 24 | 135 | 8.0 | 9.7 | 0.00 | 0.00 | 0.00 | 81 | 1017.4 |
| 20260906010152 | 25 | 139 | 6.4 | 8.0 | 0.00 | 0.00 | 0.00 | 80 | 1017.3 |
| 20260906005651 | 25 | 155 | 3.2 | 8.0 | 0.00 | 0.00 | 0.00 | 80 | 1017.3 |
| 20260906005150 | 25 | 110 | 3.2 | 9.7 | 0.00 | 0.00 | 0.00 | 79 | 1017.2 |
| 20260906004649 | 25 | 108 | 8.0 | 8.0 | 0.00 | 0.00 | 0.00 | 79 | 1017.1 |
| 20260906004144 | 25 | 130 | 6.4 | 9.7 | 0.00 | 0.00 | 0.00 | 79 | 1017.3 |
| 20260906003640 | 25 | 129 | 12.9 | 16.1 | 0.00 | 0.00 | 0.00 | 78 | 1017.2 |
| 20260906003135 | 25 | 160 | 4.8 | 9.7 | 0.00 | 0.00 | 0.00 | 78 | 1017.1 |
| 20260906002630 | 25 | 53 | 0.0 | 14.5 | 0.00 | 0.00 | 0.00 | 77 | 1017.1 |
| 20260906002125 | 25 | 131 | 6.4 | 12.9 | 0.00 | 0.00 | 0.00 | 77 | 1017.1 |
| 20260906001621 | 25 | 130 | 9.7 | 14.5 | 0.00 | 0.00 | 0.00 | 77 | 1017.1 |
| 20260906001120 | 26 | 131 | 9.7 | 14.5 | 0.00 | 0.00 | 0.00 | 76 | 1017.2 |
| 20260906000616 | 26 | 35 | 3.2 | 17.7 | 0.00 | 0.00 | 0.00 | 75 | 1017.2 |
| 20260906000111 | 26 | 110 | 11.3 | 19.3 | 0.00 | 0.00 | 0.00 | 75 | 1017.0 |
| 20260905235610 | 26 | 133 | 6.4 | 17.7 | 0.00 | 0.00 | 0.00 | 75 | 1017.1 |
| 20260905235105 | 26 | 123 | 6.4 | 16.1 | 0.00 | 0.00 | 0.00 | 75 | 1017.2 |
| 20260905234601 | 26 | 127 | 9.7 | 17.7 | 0.00 | 0.00 | 0.00 | 74 | 1017.2 |
| 20260905234056 | 26 | 129 | 8.0 | 14.5 | 0.00 | 0.00 | 0.00 | 74 | 1017.1 |
| 20260905233555 | 27 | 126 | 6.4 | 16.1 | 0.00 | 0.00 | 0.00 | 73 | 1017.4 |
| 20260905233050 | 27 | 150 | 4.8 | 16.1 | 0.00 | 0.00 | 0.00 | 73 | 1017.2 |
| 20260905232546 | 27 | 49 | 4.8 | 14.5 | 0.00 | 0.00 | 0.00 | 73 | 1017.1 |
| 20260905232042 | 27 | 127 | 12.9 | 12.9 | 0.00 | 0.00 | 0.00 | 71 | 1017.1 |
| 20260905231536 | 27 | 128 | 8.0 | 9.7 | 0.00 | 0.00 | 0.00 | 71 | 1017.1 |
| 20260905231033 | 27 | 110 | 8.0 | 14.5 | 0.00 | 0.00 | 0.00 | 71 | 1017.3 |
| 20260905230532 | 27 | 80 | 1.6 | 16.1 | 0.00 | 0.00 | 0.00 | 70 | 1016.9 |
| 20260905230031 | 27 | 40 | 9.7 | 14.5 | 0.00 | 0.00 | 0.00 | 69 | 1017.1 |
| 20260905225525 | 27 | 34 | 4.8 | 8.0 | 0.00 | 0.00 | 0.00 | 69 | 1017.2 |
| 20260905225021 | 27 | 61 | 12.9 | 17.7 | 0.00 | 0.00 | 0.00 | 70 | 1017.3 |
| 20260905224515 | 28 | 101 | 9.7 | 14.5 | 0.00 | 0.00 | 0.00 | 69 | 1017.0 |
| 20260905224014 | 27 | 136 | 11.3 | 12.9 | 0.00 | 0.00 | 0.00 | 69 | 1017.1 |
| 20260905223513 | 27 | 53 | 6.4 | 14.5 | 0.00 | 0.00 | 0.00 | 67 | 1017.5 |
| 20260905223008 | 28 | 63 | 6.4 | 11.3 | 0.00 | 0.00 | 0.00 | 67 | 1017.1 |
| 20260905222508 | 28 | 43 | 0.0 | 9.7 | 0.00 | 0.00 | 0.00 | 69 | 1017.4 |
| 20260905222003 | 28 | 124 | 4.8 | 9.7 | 0.00 | 0.00 | 0.00 | 69 | 1017.6 |
| 20260905221500 | 27 | 132 | 6.4 | 9.7 | 0.00 | 0.00 | 0.00 | 69 | 1017.4 |
| 20260905220955 | 28 | 103 | 1.6 | 8.0 | 0.00 | 0.00 | 0.00 | 69 | 1017.6 |
| 20260905220451 | 27 | 132 | 3.2 | 6.4 | 0.00 | 0.00 | 0.00 | 69 | 1017.6 |
| 20260905215950 | 27 | 240 | 3.2 | 6.4 | 0.00 | 0.00 | 0.00 | 74 | 1017.7 |
| 20260905215446 | 27 | 256 | 6.4 | 8.0 | 0.00 | 0.00 | 0.00 | 75 | 1017.5 |
| 20260905214942 | 27 | 271 | 3.2 | 6.4 | 0.00 | 0.00 | 0.00 | 75 | 1017.7 |
| 20260905214438 | 27 | 141 | 3.2 | 6.4 | 0.00 | 0.00 | 0.00 | 74 | 1017.7 |
| 20260905213937 | 27 | 125 | 4.8 | 6.4 | 0.00 | 0.00 | 0.00 | 73 | 1017.7 |
| 20260905213434 | 28 | 214 | 4.8 | 8.0 | 0.00 | 0.00 | 0.00 | 71 | 1017.7 |
| 20260905212929 | 28 | 207 | 1.6 | 6.4 | 0.00 | 0.00 | 0.00 | 71 | 1018.0 |
| 20260905212424 | 28 | 275 | 4.8 | 6.4 | 0.00 | 0.00 | 0.00 | 70 | 1018.1 |
| 20260905211923 | 28 | 359 | 0.0 | 8.0 | 0.00 | 0.00 | 0.00 | 70 | 1018.2 |
| 20260905211418 | 27 | 335 | 0.0 | 4.8 | 0.00 | 0.00 | 0.00 | 71 | 1017.9 |
| 20260905210909 | 28 | 324 | 4.8 | 8.0 | 0.00 | 0.00 | 0.00 | 71 | 1018.1 |
| 20260905210409 | 28 | 238 | 6.4 | 8.0 | 0.00 | 0.00 | 0.00 | 71 | 1018.1 |
| 20260905205908 | 28 | 290 | 0.0 | 3.2 | 0.00 | 0.00 | 0.00 | 72 | 1018.1 |
| 20260905205403 | 27 | 219 | 4.8 | 8.0 | 0.00 | 0.00 | 0.00 | 73 | 1018.3 |
| 20260905204902 | 27 | 277 | 6.4 | 8.0 | 0.00 | 0.00 | 0.00 | 74 | 1018.2 |
| 20260905204358 | 27 | 264 | 4.8 | 9.7 | 0.00 | 0.00 | 0.00 | 75 | 1018.2 |
| 20260905203857 | 26 | 6 | 3.2 | 4.8 | 0.00 | 0.00 | 0.00 | 76 | 1018.2 |
| 20260905203353 | 27 | 285 | 3.2 | 8.0 | 0.00 | 0.00 | 0.00 | 75 | 1018.3 |
| 20260905202848 | 27 | 290 | 0.0 | 3.2 | 0.00 | 0.00 | 0.00 | 74 | 1018.5 |
| 20260905202343 | 27 | 236 | 0.0 | 4.8 | 0.00 | 0.00 | 0.00 | 75 | 1018.3 |
| 20260905201839 | 27 | 237 | 3.2 | 4.8 | 0.00 | 0.00 | 0.00 | 74 | 1018.4 |
| 20260905201334 | 26 | 299 | 4.8 | 8.0 | 0.00 | 0.00 | 0.00 | 77 | 1018.6 |
| 20260905200834 | 26 | 274 | 11.3 | 14.5 | 0.00 | 0.00 | 0.00 | 79 | 1018.5 |
| 20260905200331 | 26 | 275 | 8.0 | 14.5 | 0.00 | 0.00 | 0.00 | 77 | 1018.5 |
| 20260905195828 | 27 | 247 | 9.7 | 11.3 | 0.00 | 0.00 | 0.00 | 75 | 1018.6 |
| 20260905195323 | 26 | 228 | 3.2 | 6.4 | 0.00 | 0.00 | 0.00 | 75 | 1018.7 |
| 20260905194819 | 26 | 313 | 4.8 | 9.7 | 0.00 | 0.00 | 0.00 | 75 | 1018.4 |
| 20260905194319 | 26 | 301 | 8.0 | 11.3 | 0.00 | 0.00 | 0.00 | 75 | 1018.5 |
| 20260905193818 | 27 | 295 | 6.4 | 9.7 | 0.00 | 0.00 | 0.00 | 75 | 1018.5 |
| 20260905193313 | 27 | 242 | 4.8 | 11.3 | 0.00 | 0.00 | 0.00 | 76 | 1018.3 |
| 20260905192808 | -17 | 110 | 3.2 | 3.2 | 0.00 | 0.00 | 0.00 | 77 | 1018.5 |
| 20260905192306 | -17 | 260 | 8.0 | 11.3 | 0.00 | 0.00 | 0.00 | 77 | 1018.6 |
| 20260905191803 | -17 | 295 | 3.2 | 6.4 | 0.00 | 0.00 | 0.00 | 77 | 1018.5 |
| 20260905191302 | -17 | 155 | 0.0 | 3.2 | 0.00 | 0.00 | 0.00 | 77 | 1018.5 |
| 20260905190801 | 25 | 171 | 3.2 | 6.4 | 0.00 | 0.00 | 0.00 | 78 | 1018.6 |
| 20260905190301 | 26 | 249 | 3.2 | 6.4 | 0.00 | 0.00 | 0.00 | 78 | 1018.5 |
| 20260905185759 | 26 | 128 | 4.8 | 6.4 | 0.00 | 0.00 | 0.00 | 78 | 1018.5 |
| 20260905185249 | 26 | 155 | 4.8 | 4.8 | 0.00 | 0.00 | 0.00 | 78 | 1018.3 |
| 20260905184748 | 25 | 123 | 1.6 | 11.3 | 0.00 | 0.00 | 0.00 | 79 | 1018.6 |
| 20260905184247 | 26 | 20 | 1.6 | 6.4 | 0.00 | 0.00 | 0.00 | 77 | 1018.7 |
| 20260905183741 | 26 | 223 | 0.0 | 6.4 | 0.00 | 0.00 | 0.00 | 75 | 1018.7 |
| 20260905183237 | -17 | 278 | 3.2 | 3.2 | 0.00 | 0.00 | 0.00 | 78 | 1018.5 |
| 20260905182736 | -17 | 26 | 1.6 | 8.0 | 0.00 | 0.00 | 0.00 | 78 | 1018.6 |
| 20260905182236 | -17 | 43 | 0.0 | 3.2 | 0.00 | 0.00 | 0.00 | 78 | 1018.4 |
| 20260905181732 | -17 | 144 | 4.8 | 9.7 | 0.00 | 0.00 | 0.00 | 78 | 1019.0 |
| 20260905181230 | -17 | 322 | 4.8 | 4.8 | 0.00 | 0.00 | 0.00 | 80 | 1018.8 |
| 20260905180725 | -17 | 143 | 3.2 | 4.8 | 0.00 | 0.00 | 0.00 | 80 | 1018.8 |
| 20260905180221 | -17 | 20 | 0.0 | 8.0 | 0.00 | 0.00 | 0.00 | 80 | 1019.1 |
| 20260905175720 | -17 | 88 | 3.2 | 9.7 | 0.00 | 0.00 | 0.00 | 82 | 1018.8 |
| 20260905175215 | 25 | 134 | 0.0 | 4.8 | 0.00 | 0.00 | 0.00 | 82 | 1018.9 |
| 20260905174710 | 26 | 68 | 3.2 | 8.0 | 0.00 | 0.00 | 0.00 | 80 | 1019.1 |
| 20260905174206 | 25 | 115 | 3.2 | 4.8 | 0.00 | 0.00 | 0.00 | 80 | 1019.0 |
| 20260905173702 | -17 | 299 | 0.0 | 4.8 | 0.00 | 0.00 | 0.00 | 82 | 1019.0 |
| 20260905173158 | -17 | 119 | 4.8 | 9.7 | 0.00 | 0.00 | 0.00 | 85 | 1019.1 |
| 20260905172657 | -17 | 90 | 9.7 | 11.3 | 0.00 | 0.00 | 0.00 | 85 | 1019.1 |
| 20260905172151 | -17 | 41 | 8.0 | 9.7 | 0.00 | 0.00 | 0.00 | 84 | 1019.1 |
| 20260905171647 | -17 | 160 | 4.8 | 6.4 | 0.00 | 0.00 | 0.00 | 85 | 1019.1 |
| 20260905171143 | -17 | 110 | 3.2 | 8.0 | 0.00 | 0.00 | 0.00 | 89 | 1019.2 |
| 20260905170640 | -17 | 128 | 6.4 | 12.9 | 0.00 | 0.00 | 0.00 | 89 | 1019.3 |
| 20260905170135 | -17 | 186 | 4.8 | 9.7 | 0.00 | 0.00 | 0.00 | 89 | 1019.0 |
| 20260905165635 | -17 | 127 | 4.8 | 6.4 | 0.00 | 0.00 | 0.00 | 89 | 1019.2 |
| 20260905165130 | -17 | 170 | 4.8 | 11.3 | 0.00 | 0.00 | 0.00 | 89 | 1019.3 |
| 20260905164625 | -17 | 158 | 4.8 | 9.7 | 0.00 | 0.00 | 0.00 | 89 | 1019.2 |
| 20260905164124 | -17 | 165 | 6.4 | 8.0 | 0.00 | 0.00 | 0.00 | 90 | 1019.1 |
| 20260905163620 | -17 | 208 | 0.0 | 4.8 | 0.00 | 0.00 | 0.00 | 90 | 1019.5 |
| 20260905163117 | -17 | 229 | 4.8 | 6.4 | 0.00 | 0.00 | 0.00 | 90 | 1019.4 |
| 20260905162613 | -17 | 167 | 4.8 | 8.0 | 0.00 | 0.00 | 0.00 | 90 | 1019.6 |
| 20260905162112 | -17 | 121 | 0.0 | 4.8 | 0.00 | 0.00 | 0.00 | 90 | 1019.6 |
| 20260905161612 | -17 | 138 | 8.0 | 11.3 | 0.00 | 0.00 | 0.00 | 90 | 1019.5 |
| 20260905161109 | -17 | 168 | 6.4 | 8.0 | 0.00 | 0.00 | 0.00 | 90 | 1019.1 |
| 20260905160609 | -17 | 174 | 6.4 | 11.3 | 0.00 | 0.00 | 0.00 | 90 | 1019.4 |
| 20260905155557 | -17 | 123 | 9.7 | 9.7 | 0.00 | 0.00 | 0.00 | 91 | 1019.6 |
| 20260905155056 | 22 | 140 | 3.2 | 3.2 | 0.00 | 0.00 | 0.00 | 91 | 1019.2 |
| 20260905154551 | 22 | 176 | 3.2 | 6.4 | 0.00 | 0.00 | 0.00 | 91 | 1019.5 |
| 20260905154047 | 22 | 123 | 6.4 | 6.4 | 0.00 | 0.00 | 0.00 | 91 | 1019.3 |
| 20260905153542 | -17 | 174 | 1.6 | 4.8 | 0.00 | 0.00 | 0.00 | 92 | 1019.3 |
| 20260905153043 | -17 | 101 | 3.2 | 9.7 | 0.00 | 0.00 | 0.00 | 92 | 1019.0 |
| 20260905152537 | -17 | 148 | 6.4 | 12.9 | 0.00 | 0.00 | 0.00 | 93 | 1019.2 |
| 20260905152032 | -17 | 134 | 6.4 | 9.7 | 0.00 | 0.00 | 0.00 | 93 | 1019.1 |